When you browse on this site, cookies collect data to enhance your experience and personalize the content and advertising you see.
Visit our Privacy Policy to learn more. By continuing to use the site, you agree to this use of cookies and data.
  • In Hungary
  • List of Countries
  • For 7 days
  • Water Temperature
  • Weather Map
  • News
  • Weather Widgets
  • user-avatar
    Login

    Hourly Weather Chuguyevka

    Today, 18 November, Monday

    Time Temperature Precipitation Wind Pressure Humidity
    00:00 -1°C° 0 mm 1 mps 739 mmHg 44%
    01:00 -3°C° 0.1 mm 2 mps 737 mmHg 48%
    02:00 -3°C° 0.1 mm 2 mps 736 mmHg 51%
    03:00 -2°C° 0 mm 2 mps 734 mmHg 54%
    04:00 -2°C° 0.1 mm 3 mps 732 mmHg 62%
    05:00 -3°C° 0.1 mm 4 mps 730 mmHg 71%
    06:00 -2°C° 0.1 mm 4 mps 728 mmHg 79%
    07:00 -2°C° 0.7 mm 5 mps 727 mmHg 80%
    08:00 -2°C° 0.7 mm 6 mps 725 mmHg 82%
    09:00 0°C° 0 mm 5 mps 725 mmHg 87%
    10:00 -2°C° 2 mm 5 mps 725 mmHg 88%
    11:00 -4°C° 2 mm 5 mps 725 mmHg 88%
    12:00 -5°C° 2 mm 5 mps 725 mmHg 89%
    13:00 -6°C° 0.3 mm 6 mps 726 mmHg 86%
    14:00 -8°C° 0.3 mm 6 mps 727 mmHg 82%
    15:00 -8°C° 0 mm 6 mps 728 mmHg 83%
    16:00 -10°C° 0.1 mm 5 mps 729 mmHg 84%
    17:00 -11°C° 0.1 mm 4 mps 731 mmHg 84%
    18:00 -12°C° 0.1 mm 3 mps 732 mmHg 84%
    19:00 -14°C° 0 mm 4 mps 732 mmHg 85%
    20:00 -14°C° 0 mm 4 mps 733 mmHg 85%
    21:00 -15°C° 0 mm 4 mps 733 mmHg 86%
    22:00 -14°C° 0 mm 3 mps 733 mmHg 86%
    23:00 -15°C° 0 mm 3 mps 733 mmHg 85%

    Tomorrow, 19 November, Tuesday

    Time Temperature Precipitation Wind Pressure Humidity
    00:00 -15°C° 0 mm 3 mps 733 mmHg 85%
    01:00 -16°C° 0 mm 3 mps 733 mmHg 87%
    02:00 -15°C° 0 mm 2 mps 732 mmHg 88%
    03:00 -16°C° 0 mm 2 mps 732 mmHg 90%
    04:00 -16°C° 0 mm 2 mps 732 mmHg 89%
    05:00 -16°C° 0 mm 2 mps 733 mmHg 89%
    06:00 -16°C° 0 mm 2 mps 733 mmHg 88%
    07:00 -16°C° 0 mm 3 mps 733 mmHg 83%
    08:00 -17°C° 0 mm 4 mps 733 mmHg 79%
    09:00 -17°C° 0 mm 5 mps 733 mmHg 74%
    10:00 -17°C° 0 mm 5 mps 733 mmHg 73%
    11:00 -16°C° 0 mm 6 mps 733 mmHg 73%
    12:00 -16°C° 0 mm 6 mps 733 mmHg 72%
    13:00 -16°C° 0.1 mm 6 mps 733 mmHg 74%
    14:00 -16°C° 0.1 mm 6 mps 733 mmHg 77%
    15:00 -17°C° 0.1 mm 6 mps 733 mmHg 80%
    16:00 -17°C° 0.1 mm 6 mps 734 mmHg 81%
    17:00 -17°C° 0.1 mm 6 mps 734 mmHg 83%
    18:00 -18°C° 0.1 mm 6 mps 735 mmHg 85%
    19:00 -18°C° 0.1 mm 6 mps 735 mmHg 87%
    20:00 -18°C° 0.1 mm 6 mps 735 mmHg 89%
    21:00 -18°C° 0.1 mm 6 mps 736 mmHg 91%
    22:00 -18°C° 0.2 mm 6 mps 736 mmHg 91%
    23:00 -18°C° 0.2 mm 6 mps 737 mmHg 92%

    Day after tomorrow, 20 November, Wednesday

    Time Temperature Precipitation Wind Pressure Humidity
    00:00 -18°C° 0.2 mm 6 mps 737 mmHg 92%
    01:00 -18°C° 0.2 mm 5 mps 738 mmHg 92%
    02:00 -18°C° 0.2 mm 5 mps 739 mmHg 93%
    03:00 -17°C° 0.2 mm 4 mps 739 mmHg 93%
    04:00 -16°C° 0.1 mm 3 mps 740 mmHg 93%
    05:00 -17°C° 0.1 mm 3 mps 741 mmHg 94%
    06:00 -16°C° 0.1 mm 2 mps 741 mmHg 95%
    07:00 -15°C° 0.1 mm 2 mps 742 mmHg 92%
    08:00 -15°C° 0.1 mm 2 mps 742 mmHg 89%
    09:00 -15°C° 0.1 mm 2 mps 743 mmHg 87%
    10:00 -14°C° 0 mm 2 mps 743 mmHg 84%
    11:00 -13°C° 0 mm 2 mps 743 mmHg 81%
    12:00 -12°C° 0 mm 2 mps 743 mmHg 78%
    13:00 -12°C° 0 mm 2 mps 743 mmHg 78%
    14:00 -12°C° 0 mm 2 mps 743 mmHg 79%
    15:00 -12°C° 0 mm 2 mps 743 mmHg 80%
    16:00 -11°C° 0 mm 1 mps 743 mmHg 85%
    17:00 -12°C° 0 mm 1 mps 744 mmHg 89%
    18:00 -13°C° 0 mm 1 mps 744 mmHg 94%
    19:00 -13°C° 0 mm 1 mps 744 mmHg 94%
    20:00 -14°C° 0 mm 1 mps 744 mmHg 94%
    21:00 -14°C° 0 mm 1 mps 744 mmHg 94%
    22:00 -14°C° 0 mm 1 mps 744 mmHg 94%
    23:00 -14°C° 0 mm 1 mps 745 mmHg 94%

    21 November, Thursday

    Time Temperature Precipitation Wind Pressure Humidity
    00:00 -14°C° 0 mm 1 mps 745 mmHg 94%
    01:00 -14°C° 0 mm 1 mps 745 mmHg 94%
    02:00 -15°C° 0 mm 1 mps 745 mmHg 93%
    03:00 -15°C° 0 mm 1 mps 745 mmHg 93%
    04:00 -15°C° 0 mm 1 mps 745 mmHg 92%
    05:00 -15°C° 0 mm 1 mps 745 mmHg 91%
    06:00 -15°C° 0 mm 1 mps 745 mmHg 90%
    07:00 -13°C° 0 mm 1 mps 746 mmHg 85%
    08:00 -11°C° 0 mm 1 mps 746 mmHg 80%
    09:00 -10°C° 0 mm 1 mps 747 mmHg 74%
    10:00 -8°C° 0 mm 1 mps 747 mmHg 68%
    11:00 -4°C° 0 mm 1 mps 747 mmHg 62%
    12:00 -2°C° 0 mm 1 mps 747 mmHg 56%
    13:00 -2°C° 0 mm 1 mps 746 mmHg 58%
    14:00 -2°C° 0 mm 1 mps 746 mmHg 60%
    15:00 -2°C° 0 mm 1 mps 746 mmHg 62%
    16:00 -4°C° 0 mm 1 mps 746 mmHg 68%
    17:00 -7°C° 0 mm 1 mps 747 mmHg 74%
    18:00 -9°C° 0 mm 0 mps 747 mmHg 80%
    19:00 -9°C° 0 mm 1 mps 747 mmHg 82%
    20:00 -9°C° 0 mm 1 mps 747 mmHg 84%
    21:00 -8°C° 0 mm 1 mps 747 mmHg 86%
    22:00 -8°C° 0 mm 1 mps 747 mmHg 85%
    23:00 -8°C° 0 mm 1 mps 747 mmHg 85%

    22 November, Friday

    Time Temperature Precipitation Wind Pressure Humidity
    00:00 -8°C° 0 mm 1 mps 747 mmHg 84%
    01:00 -7°C° 0 mm 1 mps 747 mmHg 85%
    02:00 -7°C° 0 mm 1 mps 747 mmHg 85%
    03:00 -6°C° 0 mm 1 mps 747 mmHg 85%
    04:00 -6°C° 0 mm 1 mps 746 mmHg 85%
    05:00 -4°C° 0 mm 1 mps 746 mmHg 86%
    06:00 -4°C° 0 mm 1 mps 746 mmHg 86%
    07:00 -2°C° 0 mm 1 mps 746 mmHg 85%
    08:00 0°C° 0 mm 1 mps 747 mmHg 83%
    09:00 +1°C° 0 mm 1 mps 747 mmHg 82%
    10:00 +3°C° 0 mm 1 mps 747 mmHg 81%
    11:00 +5°C° 0 mm 1 mps 746 mmHg 80%
    12:00 +7°C° 0 mm 1 mps 746 mmHg 79%
    13:00 +7°C° 0 mm 1 mps 746 mmHg 82%
    14:00 +7°C° 0 mm 1 mps 746 mmHg 85%
    15:00 +7°C° 0 mm 1 mps 745 mmHg 88%
    16:00 +5°C° 0 mm 1 mps 745 mmHg 88%
    17:00 +4°C° 0 mm 1 mps 745 mmHg 89%
    18:00 +1°C° 0 mm 2 mps 745 mmHg 89%
    19:00 +1°C° 0 mm 2 mps 745 mmHg 89%
    20:00 -1°C° 0 mm 2 mps 745 mmHg 88%
    21:00 -1°C° 0 mm 2 mps 745 mmHg 88%
    22:00 -1°C° 0 mm 2 mps 745 mmHg 89%
    23:00 -1°C° 0 mm 2 mps 744 mmHg 90%

    23 November, Saturday

    Time Temperature Precipitation Wind Pressure Humidity
    00:00 -1°C° 0 mm 2 mps 744 mmHg 91%
    01:00 +1°C° 0 mm 2 mps 743 mmHg 92%
    02:00 +2°C° 0 mm 2 mps 743 mmHg 93%
    03:00 +3°C° 0 mm 2 mps 743 mmHg 94%
    04:00 +3°C° 0 mm 2 mps 742 mmHg 94%
    05:00 +4°C° 0 mm 2 mps 742 mmHg 95%
    06:00 +4°C° 0 mm 2 mps 742 mmHg 95%
    07:00 +5°C° 0 mm 2 mps 741 mmHg 95%
    08:00 +5°C° 0 mm 2 mps 741 mmHg 95%
    09:00 +4°C° 0 mm 3 mps 741 mmHg 96%
    10:00 +5°C° 0.4 mm 3 mps 740 mmHg 96%
    11:00 +5°C° 0.4 mm 3 mps 739 mmHg 96%
    12:00 +7°C° 0.4 mm 3 mps 739 mmHg 96%
    13:00 +7°C° 0.6 mm 3 mps 738 mmHg 96%
    14:00 +7°C° 0.6 mm 3 mps 738 mmHg 96%
    15:00 +7°C° 0.6 mm 3 mps 738 mmHg 95%
    16:00 +5°C° 0 mm 3 mps 738 mmHg 95%
    17:00 +5°C° 0 mm 2 mps 739 mmHg 94%
    18:00 +4°C° 0 mm 2 mps 739 mmHg 93%
    19:00 +4°C° 0 mm 2 mps 740 mmHg 94%
    20:00 +4°C° 0 mm 2 mps 740 mmHg 94%
    21:00 +3°C° 0 mm 2 mps 741 mmHg 95%
    22:00 +2°C° 0 mm 2 mps 741 mmHg 93%
    23:00 -1°C° 0 mm 2 mps 741 mmHg 91%
    Show more